GW6717 Weather Reports


time (UTC)temp
C
wind
direction
speed
KPH
gust
KPH
rain 1hr
cm
rain 24hr
cm
rain mn
cm
humidity
%
barometer
mb
20260507231339 14 320 1.6 3.2 0.00 0.00 0.00 42 1010.6
20260507230835 14 23 0.0 1.6 0.00 0.00 0.00 40 1010.3
20260507230333 14 48 1.6 3.2 0.00 0.00 0.00 42 1010.4
20260507225832 14 9 0.0 0.0 0.00 0.00 0.00 42 1010.3
20260507225329 14 19 1.6 3.2 0.00 0.00 0.00 41 1010.2
20260507224825 15 338 1.6 3.2 0.00 0.00 0.00 37 1010.2
20260507224322 15 39 1.6 1.6 0.00 0.00 0.00 38 1010.2
20260507223818 15 26 0.0 1.6 0.00 0.00 0.00 37 1010.2
20260507223314 15 351 0.0 1.6 0.00 0.00 0.00 40 1010.1
20260507222812 15 1 1.6 3.2 0.00 0.00 0.00 41 1010.2
20260507222308 15 22 0.0 0.0 0.00 0.00 0.00 41 1010.0
20260507221805 15 62 0.0 0.0 0.00 0.00 0.00 41 1009.9
20260507221301 15 339 1.6 1.6 0.00 0.00 0.00 38 1010.0
20260507220757 15 37 1.6 3.2 0.00 0.00 0.00 37 1010.0
20260507220256 16 332 1.6 1.6 0.00 0.00 0.00 44 1009.8
20260507215752 16 292 0.0 3.2 0.00 0.00 0.00 43 1009.7
20260507215250 16 299 3.2 3.2 0.00 0.00 0.00 40 1009.7
20260507214746 16 7 1.6 3.2 0.00 0.00 0.00 40 1009.7
20260507214244 15 12 0.0 1.6 0.00 0.00 0.00 37 1009.6
20260507213739 15 25 1.6 3.2 0.00 0.00 0.00 41 1009.6
20260507213236 16 8 0.0 1.6 0.00 0.00 0.00 37 1009.6
20260507212732 16 304 0.0 1.6 0.00 0.00 0.00 36 1009.6
20260507212229 16 253 3.2 4.8 0.00 0.00 0.00 35 1009.7
20260507211726 16 49 1.6 1.6 0.00 0.00 0.00 36 1009.6
20260507211222 16 23 0.0 0.0 0.00 0.00 0.00 37 1009.5
20260507210719 16 14 1.6 1.6 0.00 0.00 0.00 39 1009.5
20260507210216 16 7 1.6 1.6 0.00 0.00 0.00 36 1009.3
20260507205712 16 22 1.6 1.6 0.00 0.00 0.00 41 1009.5
20260507205209 16 10 1.6 3.2 0.00 0.00 0.00 40 1009.4
20260507204705 15 1 0.0 0.0 0.00 0.00 0.00 42 1009.5
20260507204203 15 15 0.0 0.0 0.00 0.00 0.00 38 1009.4
20260507203701 16 27 1.6 1.6 0.00 0.00 0.00 41 1009.4
20260507203158 16 322 1.6 4.8 0.00 0.00 0.00 39 1009.3
20260507202653 16 359 0.0 1.6 0.00 0.00 0.00 40 1009.4
20260507202150 16 5 0.0 1.6 0.00 0.00 0.00 40 1009.4
20260507201645 16 0 1.6 1.6 0.00 0.00 0.00 38 1009.5
20260507201142 16 191 3.2 4.8 0.00 0.00 0.00 37 1009.4
20260507200638 16 312 3.2 3.2 0.00 0.00 0.00 42 1009.6
20260507200135 15 269 3.2 3.2 0.00 0.00 0.00 41 1009.6
20260507195631 15 208 3.2 4.8 0.00 0.00 0.00 37 1009.6
20260507195128 15 226 3.2 3.2 0.00 0.00 0.00 41 1009.8
20260507194626 16 104 4.8 4.8 0.00 0.00 0.00 38 1009.7
20260507194120 15 260 3.2 3.2 0.00 0.00 0.00 40 1009.8
20260507193618 15 354 1.6 3.2 0.00 0.00 0.00 41 1009.8
20260507193115 15 44 0.0 0.0 0.00 0.00 0.00 39 1009.7
20260507192611 16 25 0.0 1.6 0.00 0.00 0.00 39 1009.8
20260507192108 15 207 4.8 6.4 0.00 0.00 0.00 45 1009.8
20260507191603 15 319 0.0 1.6 0.00 0.00 0.00 44 1009.8
20260507191101 15 17 1.6 3.2 0.00 0.00 0.00 43 1010.0
20260507190558 15 13 0.0 0.0 0.00 0.00 0.00 43 1009.9
20260507190057 15 241 3.2 3.2 0.00 0.00 0.00 40 1010.0
20260507185555 15 33 3.2 4.8 0.00 0.00 0.00 41 1010.3
20260507185051 15 59 4.8 4.8 0.00 0.00 0.00 43 1010.1
20260507184549 15 270 3.2 3.2 0.00 0.00 0.00 47 1010.2
20260507184047 16 21 1.6 3.2 0.00 0.00 0.00 45 1010.3
20260507183542 16 14 1.6 3.2 0.00 0.00 0.00 44 1010.4
20260507183040 16 39 1.6 3.2 0.00 0.00 0.00 43 1010.3
20260507182536 16 341 1.6 1.6 0.00 0.00 0.00 43 1010.4
20260507182032 15 21 1.6 3.2 0.00 0.00 0.00 48 1010.5
20260507181529 15 359 1.6 4.8 0.00 0.00 0.00 43 1010.3
20260507181025 15 14 0.0 0.0 0.00 0.00 0.00 46 1010.4
20260507180522 17 36 4.8 4.8 0.00 0.00 0.00 43 1010.5
20260507180019 16 357 1.6 3.2 0.00 0.00 0.00 42 1010.4
20260507175515 16 22 1.6 3.2 0.00 0.00 0.00 40 1010.8
20260507175013 17 333 1.6 1.6 0.00 0.00 0.00 43 1010.8
20260507174510 15 359 0.0 1.6 0.00 0.00 0.00 51 1010.7
20260507174007 14 296 1.6 3.2 0.00 0.00 0.00 50 1010.8
20260507173504 15 53 1.6 1.6 0.00 0.00 0.00 44 1010.7
20260507173001 15 358 1.6 1.6 0.00 0.00 0.00 48 1011.0
20260507172457 15 22 1.6 3.2 0.00 0.00 0.00 46 1010.9
20260507171954 15 34 0.0 1.6 0.00 0.00 0.00 44 1011.0
20260507171449 15 296 1.6 3.2 0.00 0.00 0.00 44 1011.1
20260507170947 15 348 1.6 1.6 0.00 0.00 0.00 42 1010.9
20260507170444 15 352 3.2 4.8 0.00 0.00 0.00 49 1011.0
20260507165940 15 23 0.0 0.0 0.00 0.00 0.00 44 1011.0
20260507165436 15 27 1.6 1.6 0.00 0.00 0.00 46 1011.3
20260507164932 15 36 1.6 3.2 0.00 0.00 0.00 46 1011.2
20260507164429 16 24 0.0 0.0 0.00 0.00 0.00 46 1011.3
20260507163926 15 73 0.0 1.6 0.00 0.00 0.00 47 1011.6
20260507163424 15 261 1.6 4.8 0.00 0.00 0.00 44 1011.2
20260507162920 13 344 0.0 0.0 0.00 0.00 0.00 48 1011.4
20260507162415 14 316 3.2 4.8 0.00 0.00 0.00 44 1011.6
20260507161913 14 2 0.0 0.0 0.00 0.00 0.00 49 1011.7
20260507161409 15 23 0.0 1.6 0.00 0.00 0.00 44 1011.8
20260507160906 15 326 1.6 1.6 0.00 0.00 0.00 42 1011.6
20260507160402 16 80 1.6 1.6 0.00 0.00 0.00 43 1011.7
20260507155858 15 27 3.2 4.8 0.00 0.00 0.00 51 1011.8
20260507155354 15 353 1.6 1.6 0.00 0.00 0.00 46 1011.9
20260507154851 15 31 1.6 1.6 0.00 0.00 0.00 49 1011.8
20260507154348 13 350 1.6 1.6 0.00 0.00 0.00 51 1012.0
20260507153845 13 13 0.0 1.6 0.00 0.00 0.00 51 1012.1
20260507153341 13 348 1.6 1.6 0.00 0.00 0.00 46 1012.0
20260507152838 13 344 0.0 1.6 0.00 0.00 0.00 50 1012.1
20260507152334 13 213 3.2 3.2 0.00 0.00 0.00 47 1012.2
20260507151830 14 31 1.6 3.2 0.00 0.00 0.00 48 1012.2
20260507151327 13 40 0.0 1.6 0.00 0.00 0.00 48 1012.3
20260507150824 13 355 0.0 0.0 0.00 0.00 0.00 53 1012.2
20260507150320 13 1 0.0 0.0 0.00 0.00 0.00 51 1012.4
20260507145816 12 3 0.0 1.6 0.00 0.00 0.00 51 1012.4
20260507145313 12 24 0.0 1.6 0.00 0.00 0.00 57 1012.5
20260507144811 12 329 1.6 1.6 0.00 0.00 0.00 51 1012.6
20260507144307 12 30 0.0 1.6 0.00 0.00 0.00 51 1012.8
20260507143804 12 255 1.6 1.6 0.00 0.00 0.00 53 1012.8
20260507143302 12 208 1.6 3.2 0.00 0.00 0.00 58 1012.6
20260507142757 12 42 0.0 0.0 0.00 0.00 0.00 58 1012.7
20260507142254 12 46 1.6 3.2 0.00 0.00 0.00 59 1013.1
20260507141750 12 247 3.2 3.2 0.00 0.00 0.00 54 1013.0
20260507141248 12 172 3.2 4.8 0.00 0.00 0.00 60 1013.1
20260507140743 12 19 0.0 1.6 0.00 0.00 0.00 58 1013.0
20260507140241 11 6 0.0 0.0 0.00 0.00 0.00 56 1013.0
20260507135738 11 196 1.6 3.2 0.00 0.00 0.00 60 1013.3
20260507135235 11 25 0.0 0.0 0.00 0.00 0.00 61 1013.2
20260507134731 11 292 0.0 1.6 0.00 0.00 0.00 63 1013.4
20260507134228 11 25 0.0 0.0 0.00 0.00 0.00 66 1013.3
20260507133724 10 11 0.0 0.0 0.00 0.00 0.00 68 1013.3
20260507133221 11 29 0.0 0.0 0.00 0.00 0.00 68 1013.3
20260507132718 10 349 0.0 1.6 0.00 0.00 0.00 71 1013.4
20260507132215 10 356 0.0 0.0 0.00 0.00 0.00 70 1013.6
20260507131712 10 17 0.0 0.0 0.00 0.00 0.00 70 1013.6
20260507131209 10 28 0.0 0.0 0.00 0.00 0.00 75 1013.6
20260507130706 9 23 1.6 1.6 0.00 0.00 0.00 78 1013.4
20260507130204 8 22 0.0 0.0 0.00 0.00 0.00 80 1013.5
20260507125702 8 31 0.0 0.0 0.00 0.00 0.00 84 1013.4
20260507125159 7 20 0.0 0.0 0.00 0.00 0.00 88 1013.6
20260507124655 7 14 0.0 0.0 0.00 0.00 0.00 90 1013.5
20260507124153 7 15 0.0 0.0 0.00 0.00 0.00 91 1013.5
20260507123651 7 23 0.0 0.0 0.00 0.00 0.00 92 1013.6
20260507123148 6 16 0.0 0.0 0.00 0.00 0.00 93 1013.6
20260507122643 6 23 0.0 0.0 0.00 0.00 0.00 93 1013.7
20260507122139 6 20 0.0 0.0 0.00 0.00 0.00 93 1013.6
20260507121635 6 20 0.0 0.0 0.00 0.00 0.00 93 1013.6
20260507121131 6 20 0.0 0.0 0.00 0.00 0.00 94 1013.6
20260507120628 5 22 0.0 0.0 0.00 0.00 0.00 94 1013.8
20260507120124 5 22 0.0 0.0 0.00 0.00 0.00 94 1013.8
20260507115621 5 23 0.0 0.0 0.00 0.00 0.00 94 1013.7
20260507115117 5 23 0.0 0.0 0.00 0.00 0.00 94 1013.7
20260507114613 5 23 0.0 0.0 0.00 0.00 0.00 94 1013.6
20260507114110 5 23 0.0 0.0 0.00 0.00 0.00 94 1013.6
20260507113607 4 23 0.0 0.0 0.00 0.00 0.00 94 1013.5
20260507113104 4 23 0.0 0.0 0.00 0.00 0.00 93 1013.4
20260507112602 4 23 0.0 0.0 0.00 0.00 0.00 93 1013.3
20260507112059 3 23 0.0 0.0 0.00 0.00 0.00 93 1013.3
20260507111555 3 23 0.0 0.0 0.00 0.00 0.00 93 1013.3
20260507111052 3 23 0.0 0.0 0.00 0.00 0.00 93 1013.2
20260507110548 3 23 0.0 0.0 0.00 0.00 0.00 93 1013.2
20260507110045 3 23 0.0 0.0 0.00 0.00 0.00 93 1013.4
20260507105542 3 23 0.0 0.0 0.00 0.00 0.00 93 1013.3
20260507105038 3 23 0.0 0.0 0.00 0.00 0.00 93 1013.2
20260507104536 3 23 0.0 0.0 0.00 0.00 0.00 93 1013.1
20260507104032 3 23 0.0 0.0 0.00 0.00 0.00 93 1013.0
20260507103528 3 23 0.0 0.0 0.00 0.00 0.00 93 1013.0
20260507103025 3 23 0.0 0.0 0.00 0.00 0.00 92 1013.0
20260507102522 3 23 0.0 0.0 0.00 0.00 0.00 92 1013.0
20260507102018 4 23 0.0 0.0 0.00 0.00 0.00 92 1013.0
20260507101513 4 23 0.0 0.0 0.00 0.00 0.00 92 1012.9
20260507101010 4 23 0.0 0.0 0.00 0.00 0.00 92 1012.9
20260507100507 4 23 0.0 0.0 0.00 0.00 0.00 92 1012.9
20260507100005 4 23 0.0 0.0 0.00 0.00 0.00 92 1012.8
20260507095503 4 23 0.0 0.0 0.00 0.00 0.00 92 1013.0
20260507094959 4 23 0.0 0.0 0.00 0.00 0.00 91 1012.8
20260507094455 4 23 0.0 0.0 0.00 0.00 0.00 91 1012.8
20260507093953 4 23 0.0 0.0 0.00 0.00 0.00 91 1013.0
20260507093450 4 23 0.0 0.0 0.00 0.00 0.00 91 1012.9
20260507092948 4 23 0.0 0.0 0.00 0.00 0.00 91 1012.9
20260507092444 5 23 0.0 0.0 0.00 0.00 0.00 90 1013.0
20260507091941 5 23 0.0 0.0 0.00 0.00 0.00 90 1012.9
20260507091438 5 23 0.0 0.0 0.00 0.00 0.00 90 1013.0
20260507090934 5 23 0.0 0.0 0.00 0.00 0.00 90 1013.2
20260507090430 5 23 0.0 0.0 0.00 0.00 0.00 89 1013.0
20260507085926 5 22 0.0 0.0 0.00 0.00 0.00 89 1013.1
20260507085424 5 22 0.0 0.0 0.00 0.00 0.00 89 1013.0
20260507084921 5 22 0.0 0.0 0.00 0.00 0.00 88 1013.0
20260507084418 5 22 0.0 0.0 0.00 0.00 0.00 88 1012.9
20260507083915 5 22 0.0 0.0 0.00 0.00 0.00 88 1013.1
20260507083411 5 22 0.0 0.0 0.00 0.00 0.00 88 1013.0
20260507082907 5 22 0.0 0.0 0.00 0.00 0.00 88 1013.1
20260507082403 5 23 0.0 0.0 0.00 0.00 0.00 87 1013.1
20260507081901 5 23 0.0 0.0 0.00 0.00 0.00 87 1012.9
20260507081356 5 24 0.0 0.0 0.00 0.00 0.00 87 1012.9
20260507080853 5 23 0.0 0.0 0.00 0.00 0.00 86 1013.0
20260507080349 6 24 0.0 0.0 0.00 0.00 0.00 86 1012.9
20260507075845 6 26 0.0 0.0 0.00 0.00 0.00 85 1012.9
20260507075341 6 26 0.0 0.0 0.00 0.00 0.00 84 1013.0
20260507074837 6 26 0.0 0.0 0.00 0.00 0.00 83 1012.9
20260507074335 6 26 0.0 0.0 0.00 0.00 0.00 83 1013.0
20260507073832 6 26 0.0 0.0 0.00 0.00 0.00 82 1013.1
20260507073329 6 26 0.0 0.0 0.00 0.00 0.00 81 1013.0
20260507072826 6 26 0.0 0.0 0.00 0.00 0.00 80 1013.0
20260507072323 6 26 0.0 0.0 0.00 0.00 0.00 80 1013.2
20260507071821 6 27 0.0 0.0 0.00 0.00 0.00 80 1013.3
20260507071318 6 25 0.0 1.6 0.00 0.00 0.00 79 1013.2
20260507070814 6 23 1.6 1.6 0.00 0.00 0.00 79 1013.1
20260507070312 6 20 0.0 1.6 0.00 0.00 0.00 80 1013.1
20260507065808 7 22 0.0 1.6 0.00 0.00 0.00 80 1013.1
20260507065306 7 23 0.0 0.0 0.00 0.00 0.00 79 1013.2
20260507064802 7 23 0.0 0.0 0.00 0.00 0.00 78 1013.1
20260507064301 7 21 0.0 1.6 0.00 0.00 0.00 77 1013.0
20260507063758 7 20 0.0 0.0 0.00 0.00 0.00 76 1013.2
20260507063255 7 18 0.0 1.6 0.00 0.00 0.00 75 1013.1
20260507062752 8 19 0.0 0.0 0.00 0.00 0.00 75 1013.0
20260507062249 8 18 0.0 0.0 0.00 0.00 0.00 74 1013.0
20260507061747 8 22 0.0 0.0 0.00 0.00 0.00 73 1013.1
20260507061244 8 23 0.0 0.0 0.00 0.00 0.00 72 1013.1
20260507060742 8 23 0.0 0.0 0.00 0.00 0.00 70 1013.2
20260507060239 8 23 0.0 0.0 0.00 0.00 0.00 71 1013.1
20260507055735 8 23 0.0 0.0 0.00 0.00 0.00 69 1013.2
20260507055230 8 23 0.0 0.0 0.00 0.00 0.00 70 1013.3
20260507054727 8 23 0.0 0.0 0.00 0.00 0.00 70 1013.5
20260507054224 8 23 0.0 0.0 0.00 0.00 0.00 69 1013.4
20260507053721 8 23 0.0 0.0 0.00 0.00 0.00 70 1013.6
20260507053219 8 23 0.0 0.0 0.00 0.00 0.00 70 1013.8
20260507052718 8 23 0.0 0.0 0.00 0.00 0.00 69 1013.8
20260507052213 8 23 0.0 0.0 0.00 0.00 0.00 70 1013.7
20260507051712 8 23 0.0 0.0 0.00 0.00 0.00 70 1013.9
20260507051208 8 23 0.0 0.0 0.00 0.00 0.00 69 1013.8
20260507050705 8 23 0.0 0.0 0.00 0.00 0.00 70 1013.8
20260507050202 8 23 0.0 0.0 0.00 0.00 0.00 69 1014.1
20260507045659 9 23 0.0 0.0 0.00 0.00 0.00 68 1013.8
20260507045156 9 23 0.0 0.0 0.00 0.00 0.00 68 1013.7
20260507044652 8 23 0.0 0.0 0.00 0.00 0.00 69 1013.6
20260507044149 8 23 0.0 0.0 0.00 0.00 0.00 67 1013.8
20260507043645 8 23 0.0 0.0 0.00 0.00 0.00 69 1013.7
20260507043142 8 23 0.0 0.0 0.00 0.00 0.00 68 1013.5
20260507042638 9 23 0.0 0.0 0.00 0.00 0.00 70 1013.7
20260507042134 9 23 0.0 0.0 0.00 0.00 0.00 69 1013.7
20260507041631 9 23 0.0 0.0 0.00 0.00 0.00 68 1013.7
20260507041127 9 23 0.0 0.0 0.00 0.00 0.00 69 1013.9
20260507040624 9 23 0.0 0.0 0.00 0.00 0.00 69 1013.8
20260507040120 9 23 0.0 0.0 0.00 0.00 0.00 70 1013.4
20260507035616 9 23 0.0 0.0 0.00 1.32 1.32 69 1013.5
20260507035113 9 23 0.0 0.0 0.00 1.32 1.32 68 1013.6
20260507034609 9 23 0.0 0.0 0.00 1.32 1.32 70 1013.4
20260507034107 9 23 0.0 0.0 0.00 1.32 1.32 72 1013.4
20260507033606 9 23 0.0 0.0 0.00 1.32 1.32 72 1013.5
20260507033102 9 23 0.0 0.0 0.00 1.32 1.32 71 1013.6
20260507032600 9 23 0.0 0.0 0.00 1.32 1.32 70 1013.3
20260507032055 9 23 0.0 0.0 0.00 1.32 1.32 72 1013.5
20260507031552 9 23 0.0 0.0 0.00 1.32 1.32 72 1013.4
20260507031049 9 23 0.0 0.0 0.00 1.32 1.32 73 1013.3
20260507030546 10 23 0.0 0.0 0.00 1.32 1.32 73 1013.0
20260507030044 9 23 0.0 0.0 0.00 1.32 1.32 72 1013.0
20260507025541 10 23 0.0 0.0 0.00 1.32 1.32 72 1013.1
20260507025038 10 23 0.0 0.0 0.00 1.32 1.32 70 1013.3
20260507024536 10 23 0.0 0.0 0.00 1.32 1.32 71 1013.2
20260507024032 10 23 0.0 0.0 0.00 1.32 1.32 70 1013.2
20260507023528 10 23 0.0 0.0 0.00 1.32 1.32 70 1013.0
20260507023026 10 23 0.0 0.0 0.00 1.32 1.32 72 1013.0
20260507022522 10 23 0.0 0.0 0.00 1.32 1.32 71 1013.1
20260507022017 10 23 0.0 0.0 0.00 1.32 1.32 70 1012.9
20260507021514 10 23 0.0 0.0 0.00 1.32 1.32 70 1012.9
20260507021011 10 23 0.0 0.0 0.00 1.32 1.32 68 1013.0
20260507020508 10 23 0.0 0.0 0.00 1.32 1.32 69 1012.8
20260507020004 10 22 0.0 0.0 0.00 1.32 1.32 68 1012.8
20260507015503 10 22 0.0 0.0 0.00 1.32 1.32 69 1012.7
20260507015000 10 23 0.0 0.0 0.00 1.32 1.32 70 1012.7
20260507014456 10 23 0.0 0.0 0.00 1.32 1.32 69 1012.4
20260507013952 10 23 0.0 0.0 0.00 1.32 1.32 70 1012.4
20260507013449 10 23 0.0 0.0 0.00 1.32 1.32 69 1012.4
20260507012946 10 23 0.0 0.0 0.00 1.32 1.32 70 1012.3
20260507012443 10 23 0.0 0.0 0.00 1.32 1.32 70 1012.4
20260507011940 10 23 0.0 0.0 0.00 1.32 1.32 69 1012.2
20260507011437 10 24 0.0 0.0 0.00 1.32 1.32 68 1012.1
20260507010937 10 25 0.0 0.0 0.00 1.32 1.32 69 1012.3
20260507010433 10 25 0.0 0.0 0.00 1.32 1.32 68 1012.2
20260507005930 10 25 0.0 0.0 0.00 1.32 1.32 69 1012.4
20260507005427 10 25 0.0 0.0 0.00 1.32 1.32 69 1012.4
20260507004923 10 25 0.0 0.0 0.00 1.32 1.32 68 1012.6
20260507004420 10 25 0.0 0.0 0.00 1.32 1.32 68 1012.6
20260507003918 10 25 0.0 0.0 0.00 1.32 1.32 67 1012.6
20260507003412 10 25 0.0 0.0 0.00 1.32 1.32 69 1012.5
20260507002908 11 25 0.0 0.0 0.00 1.32 1.32 68 1012.5
20260507002404 11 25 0.0 0.0 0.00 1.32 1.32 69 1012.5
20260507001902 11 20 0.0 0.0 0.00 1.32 1.32 69 1012.6
20260507001358 11 26 0.0 0.0 0.00 1.32 1.32 68 1012.5
20260507000856 11 25 0.0 0.0 0.00 1.32 1.32 71 1012.6
20260507000350 11 23 0.0 0.0 0.00 1.32 1.32 71 1012.4
20260506235847 11 25 0.0 0.0 0.00 1.32 1.32 73 1012.4
20260506235344 11 21 0.0 0.0 0.00 1.32 1.32 73 1012.6
20260506234840 11 19 0.0 0.0 0.00 1.32 1.32 74 1012.3
20260506234338 12 21 0.0 0.0 0.00 1.32 1.32 74 1012.3
20260506233836 12 22 0.0 0.0 0.00 1.32 1.32 73 1012.1
20260506233331 12 22 0.0 0.0 0.00 1.32 1.32 72 1011.9
20260506232828 12 22 0.0 0.0 0.00 1.32 1.32 73 1012.0
20260506232324 12 22 0.0 0.0 0.00 1.32 1.32 73 1011.8
20260506231820 12 22 0.0 0.0 0.00 1.32 1.32 75 1011.9